Location: Unspecified
(40.7945°N, 111.1337°W)
Time: 15:49:58
(UTC-06:00)

Vanguard 1 - Pass Details

Date: 26 June 2019
Orbit: 653 x 3830 km, 34.3° (Epoch: 20 July)

Event Time Altitude Azimuth Distance (km) Brightness Sun altitude
Rises 00:30:35 0° 208° (SSW) 7,841 - -24.5°
Reaches altitude 10° 00:36:50 10° 200° (SSW) 6,916 - -24.8°
Exits shadow 00:51:53 32° 162° (SSE) 5,036 13.0 -25.3°
Maximum altitude 00:55:47 34° 146° (SE) 4,771 13.0 -25.4°
Drops below altitude 10° 01:10:19 10° 90° (E) 5,394 13.8 -25.7°
Sets 01:14:19 0° 81° (E) 6,004 14.2 -25.8°
